Time,TemperatureF,DewpointF,PressureIn,WindDirection,WindDirectionDegrees,WindSpeedMPH,WindSpeedGustMPH,Humidity,HourlyPrecipIn,Conditions,Clouds,dailyrainin,SoftwareType,DateUTC
2013-03-23 00:00:00,23.6,19.8,30.09,NNW,330,0.0,0.0,85,0.00,,,0.00,VWS V14.01,2013-03-23 04:00:00,
2013-03-23 00:05:00,23.5,19.9,30.09,NNW,330,0.0,0.0,86,0.00,,,0.00,VWS V14.01,2013-03-23 04:05:00,
2013-03-23 00:10:00,23.5,19.9,30.09,NNW,330,0.0,0.0,86,0.00,,,0.00,VWS V14.01,2013-03-23 04:10:00,
2013-03-23 00:15:00,23.4,19.8,30.09,NNW,330,0.0,0.0,86,0.00,,,0.00,VWS V14.01,2013-03-23 04:15:00,
2013-03-23 00:20:00,23.3,19.7,30.09,NNW,330,0.0,0.0,86,0.00,,,0.00,VWS V14.01,2013-03-23 04:20:00,
2013-03-23 00:25:00,23.2,19.9,30.08,NNW,330,0.0,0.0,87,0.00,,,0.00,VWS V14.01,2013-03-23 04:25:00,
2013-03-23 00:30:00,23.2,19.9,30.08,NNW,330,0.0,0.0,87,0.00,,,0.00,VWS V14.01,2013-03-23 04:30:00,
2013-03-23 00:35:00,23.1,19.8,30.08,NNW,330,0.0,0.0,87,0.00,,,0.00,VWS V14.01,2013-03-23 04:35:00,
2013-03-23 00:40:00,22.9,19.6,30.09,NNW,330,0.0,0.0,87,0.00,,,0.00,VWS V14.01,2013-03-23 04:40:00,
2013-03-23 00:45:00,22.7,19.4,30.08,NNW,330,0.0,0.0,87,0.00,,,0.00,VWS V14.01,2013-03-23 04:45:00,
2013-03-23 00:50:00,22.6,19.3,30.08,NNW,330,0.0,0.0,87,0.00,,,0.00,VWS V14.01,2013-03-23 04:50:00,
2013-03-23 00:55:00,22.5,19.5,30.08,NNW,330,0.0,0.0,88,0.00,,,0.00,VWS V14.01,2013-03-23 04:55:00,
2013-03-23 01:00:00,22.4,19.4,30.08,NNW,330,0.0,0.0,88,0.00,,,0.00,VWS V14.01,2013-03-23 05:00:00,
2013-03-23 01:05:00,22.2,19.2,30.08,NNW,330,0.0,0.0,88,0.00,,,0.00,VWS V14.01,2013-03-23 05:05:00,
2013-03-23 01:10:00,22.1,19.1,30.08,NNW,330,0.0,0.0,88,0.00,,,0.00,VWS V14.01,2013-03-23 05:10:00,
2013-03-23 01:15:00,22.0,19.0,30.08,NNW,330,0.0,0.0,88,0.00,,,0.00,VWS V14.01,2013-03-23 05:15:00,
2013-03-23 01:20:00,21.9,18.9,30.08,NNW,330,0.0,0.0,88,0.00,,,0.00,VWS V14.01,2013-03-23 05:20:00,
2013-03-23 01:25:00,21.8,18.8,30.08,NNW,330,0.0,0.0,88,0.00,,,0.00,VWS V14.01,2013-03-23 05:25:00,
2013-03-23 01:30:00,21.7,18.7,30.08,NNW,330,0.0,0.0,88,0.00,,,0.00,VWS V14.01,2013-03-23 05:30:00,
2013-03-23 01:35:00,21.6,18.6,30.08,NNW,330,0.0,0.0,88,0.00,,,0.00,VWS V14.01,2013-03-23 05:35:00,
2013-03-23 01:40:00,21.5,18.8,30.08,NNW,330,0.0,0.0,89,0.00,,,0.00,VWS V14.01,2013-03-23 05:40:00,
2013-03-23 01:45:00,21.5,18.8,30.08,NNW,330,0.0,0.0,89,0.00,,,0.00,VWS V14.01,2013-03-23 05:45:00,
2013-03-23 01:50:00,21.5,18.8,30.08,NNW,330,0.0,0.0,89,0.00,,,0.00,VWS V14.01,2013-03-23 05:50:00,
2013-03-23 01:55:00,21.6,19.1,30.08,NNW,330,0.0,0.0,90,0.00,,,0.00,VWS V14.01,2013-03-23 05:55:00,
2013-03-23 02:00:00,21.7,19.2,30.08,NNW,330,0.0,0.0,90,0.00,,,0.00,VWS V14.01,2013-03-23 06:00:00,
2013-03-23 02:05:00,21.7,19.2,30.08,NNW,330,0.0,0.0,90,0.00,,,0.00,VWS V14.01,2013-03-23 06:05:00,
2013-03-23 02:10:00,21.9,19.4,30.08,NNW,330,0.0,0.0,90,0.00,,,0.00,VWS V14.01,2013-03-23 06:10:00,
2013-03-23 02:15:00,21.8,19.3,30.08,NNW,330,0.0,0.0,90,0.00,,,0.00,VWS V14.01,2013-03-23 06:15:00,
2013-03-23 02:20:00,21.8,19.6,30.08,NNW,330,0.0,0.0,91,0.00,,,0.00,VWS V14.01,2013-03-23 06:20:00,
2013-03-23 02:24:00,21.7,19.5,30.08,NNW,330,0.0,0.0,91,0.00,,,0.00,VWS V14.01,2013-03-23 06:24:00,
2013-03-23 02:29:00,21.6,19.4,30.08,NNW,330,0.0,0.0,91,0.00,,,0.00,VWS V14.01,2013-03-23 06:29:00,
2013-03-23 02:34:00,21.5,19.3,30.08,NNW,330,0.0,0.0,91,0.00,,,0.00,VWS V14.01,2013-03-23 06:34:00,
2013-03-23 02:39:00,21.5,19.3,30.08,NNW,330,0.0,0.0,91,0.00,,,0.00,VWS V14.01,2013-03-23 06:39:00,
2013-03-23 02:44:00,21.6,19.4,30.08,NNW,330,0.0,0.0,91,0.00,,,0.00,VWS V14.01,2013-03-23 06:44:00,
2013-03-23 02:49:00,21.5,19.3,30.08,NNW,330,0.0,0.0,91,0.00,,,0.00,VWS V14.01,2013-03-23 06:49:00,
2013-03-23 02:54:00,21.3,19.1,30.08,NNW,330,0.0,0.0,91,0.00,,,0.00,VWS V14.01,2013-03-23 06:54:00,
2013-03-23 02:59:00,21.2,19.0,30.08,NNW,330,0.0,0.0,91,0.00,,,0.00,VWS V14.01,2013-03-23 06:59:00,
2013-03-23 03:04:00,21.1,18.9,30.08,NNW,330,0.0,0.0,91,0.00,,,0.00,VWS V14.01,2013-03-23 07:04:00,
2013-03-23 03:09:00,21.1,18.9,30.08,NNW,330,0.0,0.0,91,0.00,,,0.00,VWS V14.01,2013-03-23 07:09:00,
2013-03-23 03:14:00,21.0,18.8,30.08,NNW,330,0.0,0.0,91,0.00,,,0.00,VWS V14.01,2013-03-23 07:14:00,
2013-03-23 03:19:00,21.0,18.8,30.08,NNW,330,0.0,0.0,91,0.00,,,0.00,VWS V14.01,2013-03-23 07:19:00,
2013-03-23 03:24:00,21.1,19.1,30.08,NNW,330,0.0,0.0,92,0.00,,,0.00,VWS V14.01,2013-03-23 07:24:00,
2013-03-23 03:29:00,21.1,19.1,30.08,NNW,330,0.0,0.0,92,0.00,,,0.00,VWS V14.01,2013-03-23 07:29:00,
2013-03-23 03:34:00,21.1,19.1,30.08,NNW,330,0.0,0.0,92,0.00,,,0.00,VWS V14.01,2013-03-23 07:34:00,
2013-03-23 03:39:00,21.1,19.1,30.08,NNW,330,0.0,0.0,92,0.00,,,0.00,VWS V14.01,2013-03-23 07:39:00,
2013-03-23 03:44:00,21.2,19.2,30.08,NNW,330,0.0,0.0,92,0.00,,,0.00,VWS V14.01,2013-03-23 07:44:00,
2013-03-23 03:49:00,21.2,19.2,30.08,NNW,330,0.0,0.0,92,0.00,,,0.00,VWS V14.01,2013-03-23 07:49:00,
2013-03-23 03:54:00,21.2,19.2,30.08,NNW,330,0.0,0.0,92,0.00,,,0.00,VWS V14.01,2013-03-23 07:54:00,
2013-03-23 03:59:00,21.1,19.1,30.07,NNW,330,0.0,0.0,92,0.00,,,0.00,VWS V14.01,2013-03-23 07:59:00,
2013-03-23 04:04:00,21.1,19.1,30.07,NNW,330,0.0,0.0,92,0.00,,,0.00,VWS V14.01,2013-03-23 08:04:00,
2013-03-23 04:09:00,21.1,19.1,30.08,NNW,330,0.0,0.0,92,0.00,,,0.00,VWS V14.01,2013-03-23 08:09:00,
2013-03-23 04:14:00,21.1,19.1,30.08,NNW,330,0.0,0.0,92,0.00,,,0.00,VWS V14.01,2013-03-23 08:14:00,
2013-03-23 04:19:00,21.1,19.1,30.08,NNW,330,0.0,0.0,92,0.00,,,0.00,VWS V14.01,2013-03-23 08:19:00,
2013-03-23 04:24:00,21.1,19.1,30.08,NNW,330,0.0,0.0,92,0.00,,,0.00,VWS V14.01,2013-03-23 08:24:00,
2013-03-23 04:29:00,21.0,19.0,30.08,NNW,330,0.0,0.0,92,0.00,,,0.00,VWS V14.01,2013-03-23 08:29:00,
2013-03-23 04:34:00,21.1,19.4,30.08,NNW,330,0.0,0.0,93,0.00,,,0.00,VWS V14.01,2013-03-23 08:34:00,
2013-03-23 04:39:00,21.0,19.0,30.08,NNW,330,0.0,0.0,92,0.00,,,0.00,VWS V14.01,2013-03-23 08:39:00,
2013-03-23 04:44:00,20.9,19.0,30.08,NNW,330,0.0,0.0,92,0.00,,,0.00,VWS V14.01,2013-03-23 08:44:00,
2013-03-23 04:49:00,20.8,18.9,30.08,NNW,330,0.0,0.0,92,0.00,,,0.00,VWS V14.01,2013-03-23 08:49:00,
2013-03-23 04:54:00,20.6,18.6,30.08,NNW,330,0.0,0.0,92,0.00,,,0.00,VWS V14.01,2013-03-23 08:54:00,
2013-03-23 04:59:00,20.5,18.5,30.08,NNW,330,0.0,0.0,92,0.00,,,0.00,VWS V14.01,2013-03-23 08:59:00,
2013-03-23 05:04:00,20.4,18.5,30.09,NNW,330,0.0,0.0,92,0.00,,,0.00,VWS V14.01,2013-03-23 09:04:00,
2013-03-23 05:09:00,20.4,18.7,30.08,NNW,330,0.0,0.0,93,0.00,,,0.00,VWS V14.01,2013-03-23 09:09:00,
2013-03-23 05:14:00,20.3,18.4,30.08,NNW,330,0.0,0.0,92,0.00,,,0.00,VWS V14.01,2013-03-23 09:14:00,
2013-03-23 05:19:00,20.2,18.2,30.08,NNW,330,0.0,0.0,92,0.00,,,0.00,VWS V14.01,2013-03-23 09:19:00,
2013-03-23 05:24:00,20.0,18.0,30.08,NNW,330,0.0,0.0,92,0.00,,,0.00,VWS V14.01,2013-03-23 09:24:00,
2013-03-23 05:29:00,19.9,18.0,30.08,NNW,330,0.0,0.0,92,0.00,,,0.00,VWS V14.01,2013-03-23 09:29:00,
2013-03-23 05:34:00,19.9,18.2,30.08,NNW,330,0.0,0.0,93,0.00,,,0.00,VWS V14.01,2013-03-23 09:34:00,
2013-03-23 05:39:00,19.8,18.1,30.08,NNW,330,0.0,0.0,93,0.00,,,0.00,VWS V14.01,2013-03-23 09:39:00,
2013-03-23 05:44:00,19.8,18.1,30.08,NNW,330,0.0,0.0,93,0.00,,,0.00,VWS V14.01,2013-03-23 09:44:00,
2013-03-23 05:49:00,19.7,18.0,30.08,NNW,330,0.0,0.0,93,0.00,,,0.00,VWS V14.01,2013-03-23 09:49:00,
2013-03-23 05:54:00,19.6,17.9,30.08,NNW,330,0.0,0.0,93,0.00,,,0.00,VWS V14.01,2013-03-23 09:54:00,
2013-03-23 05:59:00,19.6,17.9,30.08,NNW,330,0.0,0.0,93,0.00,,,0.00,VWS V14.01,2013-03-23 09:59:00,
2013-03-23 06:04:00,19.6,17.9,30.08,NNW,330,0.0,0.0,93,0.00,,,0.00,VWS V14.01,2013-03-23 10:04:00,
2013-03-23 06:09:00,19.5,17.8,30.08,NNW,330,0.0,0.0,93,0.00,,,0.00,VWS V14.01,2013-03-23 10:09:00,
2013-03-23 06:14:00,19.5,17.8,30.08,NNW,330,0.0,0.0,93,0.00,,,0.00,VWS V14.01,2013-03-23 10:14:00,
2013-03-23 06:19:00,19.5,17.8,30.08,NNW,330,0.0,0.0,93,0.00,,,0.00,VWS V14.01,2013-03-23 10:19:00,
2013-03-23 06:24:00,19.5,17.8,30.08,NNW,330,0.0,0.0,93,0.00,,,0.00,VWS V14.01,2013-03-23 10:24:00,
2013-03-23 06:29:00,19.5,17.8,30.08,NNW,330,0.0,0.0,93,0.00,,,0.00,VWS V14.01,2013-03-23 10:29:00,
2013-03-23 06:34:00,19.5,17.8,30.08,NNW,330,0.0,0.0,93,0.00,,,0.00,VWS V14.01,2013-03-23 10:34:00,
2013-03-23 06:39:00,19.5,17.8,30.08,NNW,330,0.0,0.0,93,0.00,,,0.00,VWS V14.01,2013-03-23 10:39:00,
2013-03-23 06:44:00,19.5,17.8,30.08,NNW,330,0.0,0.0,93,0.00,,,0.00,VWS V14.01,2013-03-23 10:44:00,
2013-03-23 06:49:00,19.6,17.9,30.08,NNW,330,0.0,0.0,93,0.00,,,0.00,VWS V14.01,2013-03-23 10:49:00,
2013-03-23 06:54:00,19.6,17.9,30.08,NNW,330,0.0,0.0,93,0.00,,,0.00,VWS V14.01,2013-03-23 10:54:00,
2013-03-23 06:59:00,19.6,17.9,30.08,NNW,330,0.0,0.0,93,0.00,,,0.00,VWS V14.01,2013-03-23 10:59:00,
2013-03-23 07:04:00,19.5,17.8,30.09,NNW,330,0.0,0.0,93,0.00,,,0.00,VWS V14.01,2013-03-23 11:04:00,
2013-03-23 07:09:00,19.4,17.7,30.09,NNW,330,0.0,0.0,93,0.00,,,0.00,VWS V14.01,2013-03-23 11:09:00,
2013-03-23 07:14:00,19.5,17.8,30.10,NNW,330,0.0,0.0,93,0.00,,,0.00,VWS V14.01,2013-03-23 11:14:00,
2013-03-23 07:19:00,19.5,17.8,30.09,NNW,330,0.0,0.0,93,0.00,,,0.00,VWS V14.01,2013-03-23 11:19:00,
2013-03-23 07:24:00,19.4,17.7,30.10,NNW,330,0.0,0.0,93,0.00,,,0.00,VWS V14.01,2013-03-23 11:24:00,
2013-03-23 07:29:00,19.4,17.7,30.10,NNW,330,0.0,0.0,93,0.00,,,0.00,VWS V14.01,2013-03-23 11:29:00,
2013-03-23 07:34:00,19.3,17.6,30.10,NNW,330,0.0,0.0,93,0.00,,,0.00,VWS V14.01,2013-03-23 11:34:00,
2013-03-23 07:39:00,19.2,17.5,30.10,NNW,330,0.0,0.0,93,0.00,,,0.00,VWS V14.01,2013-03-23 11:39:00,
2013-03-23 07:44:00,19.2,17.5,30.10,NNW,330,0.0,0.0,93,0.00,,,0.00,VWS V14.01,2013-03-23 11:44:00,
2013-03-23 07:49:00,19.3,17.6,30.10,NNW,330,0.0,0.0,93,0.00,,,0.00,VWS V14.01,2013-03-23 11:49:00,
2013-03-23 07:54:00,19.3,17.6,30.10,NNW,330,0.0,0.0,93,0.00,,,0.00,VWS V14.01,2013-03-23 11:54:00,
2013-03-23 07:59:00,19.2,17.5,30.10,NNW,330,0.0,0.0,93,0.00,,,0.00,VWS V14.01,2013-03-23 11:59:00,
2013-03-23 08:04:00,19.2,17.5,30.10,NNW,330,0.0,0.0,93,0.00,,,0.00,VWS V14.01,2013-03-23 12:04:00,
2013-03-23 08:09:00,19.2,17.5,30.10,NNW,330,0.0,0.0,93,0.00,,,0.00,VWS V14.01,2013-03-23 12:09:00,
2013-03-23 08:14:00,19.2,17.8,30.10,NNW,330,0.0,0.0,94,0.00,,,0.00,VWS V14.01,2013-03-23 12:14:00,
2013-03-23 08:19:00,19.4,18.0,30.11,NNW,330,0.0,0.0,94,0.00,,,0.00,VWS V14.01,2013-03-23 12:19:00,
2013-03-23 08:24:00,19.5,18.1,30.11,NNW,330,0.0,0.0,94,0.00,,,0.00,VWS V14.01,2013-03-23 12:24:00,
2013-03-23 08:29:00,19.7,18.3,30.11,NNW,330,0.0,0.0,94,0.00,,,0.00,VWS V14.01,2013-03-23 12:29:00,
2013-03-23 08:34:00,19.8,18.4,30.11,NNW,330,0.0,0.0,94,0.00,,,0.00,VWS V14.01,2013-03-23 12:34:00,
2013-03-23 08:39:00,20.0,18.5,30.12,NNW,330,0.0,0.0,94,0.00,,,0.00,VWS V14.01,2013-03-23 12:39:00,
2013-03-23 08:44:00,20.3,18.9,30.11,NNW,330,0.0,0.0,94,0.00,,,0.00,VWS V14.01,2013-03-23 12:44:00,
2013-03-23 08:49:00,20.6,19.1,30.12,NNW,330,0.0,0.0,94,0.00,,,0.00,VWS V14.01,2013-03-23 12:49:00,
2013-03-23 08:54:00,21.0,19.8,30.12,NNW,330,0.0,0.0,95,0.00,,,0.00,VWS V14.01,2013-03-23 12:54:00,
2013-03-23 08:59:00,21.6,20.4,30.12,NNW,330,0.0,0.0,95,0.00,,,0.00,VWS V14.01,2013-03-23 12:59:00,
2013-03-23 09:04:00,21.9,20.7,30.12,NNW,330,0.0,0.0,95,0.00,,,0.00,VWS V14.01,2013-03-23 13:04:00,
2013-03-23 09:09:00,22.4,21.2,30.12,NNW,330,0.0,0.0,95,0.00,,,0.00,VWS V14.01,2013-03-23 13:09:00,
2013-03-23 09:14:00,22.9,21.7,30.12,NNW,330,0.0,0.0,95,0.00,,,0.00,VWS V14.01,2013-03-23 13:14:00,
2013-03-23 09:19:00,23.5,22.3,30.12,NNW,330,0.0,0.0,95,0.00,,,0.00,VWS V14.01,2013-03-23 13:19:00,
2013-03-23 09:24:00,24.1,22.9,30.12,NNW,330,0.0,0.0,95,0.00,,,0.00,VWS V14.01,2013-03-23 13:24:00,
2013-03-23 09:29:00,24.6,23.6,30.12,NNW,330,0.0,0.0,96,0.00,,,0.00,VWS V14.01,2013-03-23 13:29:00,
2013-03-23 09:34:00,25.2,24.0,30.12,NNW,330,0.0,1.0,95,0.00,,,0.00,VWS V14.01,2013-03-23 13:34:00,
2013-03-23 09:39:00,25.9,24.7,30.12,NNW,330,0.0,1.0,95,0.00,,,0.00,VWS V14.01,2013-03-23 13:39:00,
2013-03-23 09:44:00,26.7,25.5,30.11,NNW,330,0.0,1.0,95,0.00,,,0.00,VWS V14.01,2013-03-23 13:44:00,
2013-03-23 09:49:00,27.2,25.7,30.12,NNW,330,0.0,0.0,94,0.00,,,0.00,VWS V14.01,2013-03-23 13:49:00,
2013-03-23 09:54:00,27.9,25.6,30.12,NNW,330,0.0,1.0,91,0.00,,,0.00,VWS V14.01,2013-03-23 13:54:00,
2013-03-23 09:59:00,28.6,25.5,30.12,NE,34,0.0,1.0,88,0.00,,,0.00,VWS V14.01,2013-03-23 13:59:00,
2013-03-23 10:04:00,29.2,25.0,30.12,NE,34,0.0,2.0,84,0.00,,,0.00,VWS V14.01,2013-03-23 14:04:00,
2013-03-23 10:09:00,29.9,24.8,30.12,ENE,59,2.0,3.0,81,0.00,,,0.00,VWS V14.01,2013-03-23 14:09:00,
2013-03-23 10:14:00,30.2,24.5,30.12,NE,47,0.0,3.0,79,0.00,,,0.00,VWS V14.01,2013-03-23 14:14:00,
2013-03-23 10:19:00,30.3,24.3,30.12,NE,41,2.0,3.0,78,0.00,,,0.00,VWS V14.01,2013-03-23 14:19:00,
2013-03-23 10:24:00,30.5,24.5,30.13,East,82,0.0,3.0,78,0.00,,,0.00,VWS V14.01,2013-03-23 14:24:00,
2013-03-23 10:29:00,30.8,24.1,30.13,East,82,0.0,3.0,76,0.00,,,0.00,VWS V14.01,2013-03-23 14:29:00,
2013-03-23 10:34:00,31.1,24.1,30.13,East,82,0.0,1.0,75,0.00,,,0.00,VWS V14.01,2013-03-23 14:34:00,
2013-03-23 10:39:00,31.6,24.9,30.14,ENE,57,1.0,2.0,76,0.00,,,0.00,VWS V14.01,2013-03-23 14:39:00,
2013-03-23 10:44:00,31.9,25.2,30.14,NW,309,0.0,3.0,76,0.00,,,0.00,VWS V14.01,2013-03-23 14:44:00,
2013-03-23 10:49:00,32.0,25.3,30.14,NNE,28,1.0,3.0,76,0.00,,,0.00,VWS V14.01,2013-03-23 14:49:00,
2013-03-23 10:54:00,31.9,25.2,30.14,North,350,1.0,4.0,76,0.00,,,0.00,VWS V14.01,2013-03-23 14:54:00,
2013-03-23 10:59:00,32.0,25.3,30.14,NW,323,0.0,4.0,76,0.00,,,0.00,VWS V14.01,2013-03-23 14:59:00,
2013-03-23 11:04:00,32.1,24.8,30.15,WNW,285,1.0,5.0,74,0.00,,,0.00,VWS V14.01,2013-03-23 15:04:00,
2013-03-23 11:09:00,32.2,25.2,30.15,NNW,348,1.0,5.0,75,0.00,,,0.00,VWS V14.01,2013-03-23 15:09:00,
2013-03-23 11:14:00,32.1,24.8,30.15,NE,51,1.0,5.0,74,0.00,,,0.00,VWS V14.01,2013-03-23 15:14:00,
2013-03-23 11:19:00,32.4,25.0,30.15,NW,315,0.0,4.0,74,0.00,,,0.00,VWS V14.01,2013-03-23 15:19:00,
2013-03-23 11:24:00,32.6,24.9,30.16,NNW,330,2.0,4.0,73,0.00,,,0.00,VWS V14.01,2013-03-23 15:24:00,
2013-03-23 11:29:00,33.0,25.3,30.15,North,5,3.0,3.0,73,0.00,,,0.00,VWS V14.01,2013-03-23 15:29:00,
2013-03-23 11:34:00,32.8,25.1,30.15,North,360,2.0,5.0,73,0.00,,,0.00,VWS V14.01,2013-03-23 15:34:00,
2013-03-23 11:39:00,32.5,24.5,30.16,North,355,2.0,5.0,72,0.00,,,0.00,VWS V14.01,2013-03-23 15:39:00,
2013-03-23 11:44:00,32.6,24.9,30.16,North,355,1.0,5.0,73,0.00,,,0.00,VWS V14.01,2013-03-23 15:44:00,
2013-03-23 11:49:00,33.4,25.4,30.16,ENE,59,1.0,4.0,72,0.00,,,0.00,VWS V14.01,2013-03-23 15:49:00,
2013-03-23 11:54:00,33.4,25.0,30.15,NE,47,1.0,4.0,71,0.00,,,0.00,VWS V14.01,2013-03-23 15:54:00,
2013-03-23 11:59:00,34.0,25.6,30.15,North,5,2.0,5.0,71,0.00,,,0.00,VWS V14.01,2013-03-23 15:59:00,
2013-03-23 12:04:00,35.5,26.7,30.14,ENE,72,2.0,5.0,70,0.00,,,0.00,VWS V14.01,2013-03-23 16:04:00,
2013-03-23 12:09:00,35.3,25.8,30.14,North,5,2.0,6.0,68,0.00,,,0.00,VWS V14.01,2013-03-23 16:09:00,
2013-03-23 12:14:00,35.5,24.9,30.14,NE,41,3.0,10.0,65,0.00,,,0.00,VWS V14.01,2013-03-23 16:14:00,
2013-03-23 12:19:00,35.8,26.3,30.14,NE,40,2.0,10.0,68,0.00,,,0.00,VWS V14.01,2013-03-23 16:19:00,
2013-03-23 12:24:00,36.3,25.7,30.14,NW,309,1.0,10.0,65,0.00,,,0.00,VWS V14.01,2013-03-23 16:24:00,
2013-03-23 12:29:00,36.0,25.4,30.14,NNW,344,2.0,7.0,65,0.00,,,0.00,VWS V14.01,2013-03-23 16:29:00,
2013-03-23 12:34:00,36.4,25.4,30.14,North,360,5.0,7.0,64,0.00,,,0.00,VWS V14.01,2013-03-23 16:34:00,
2013-03-23 12:39:00,35.8,24.5,30.14,NE,56,4.0,7.0,63,0.00,,,0.00,VWS V14.01,2013-03-23 16:39:00,
2013-03-23 12:44:00,36.2,25.2,30.14,NNE,26,0.0,7.0,64,0.00,,,0.00,VWS V14.01,2013-03-23 16:44:00,
2013-03-23 12:49:00,36.2,25.6,30.13,NNE,22,4.0,7.0,65,0.00,,,0.00,VWS V14.01,2013-03-23 16:49:00,
2013-03-23 12:54:00,35.5,24.9,30.13,North,5,2.0,7.0,65,0.00,,,0.00,VWS V14.01,2013-03-23 16:54:00,
2013-03-23 12:59:00,35.7,25.1,30.13,NNW,343,2.0,7.0,65,0.00,,,0.00,VWS V14.01,2013-03-23 16:59:00,
2013-03-23 13:04:00,36.5,25.5,30.13,NNW,342,3.0,5.0,64,0.00,,,0.00,VWS V14.01,2013-03-23 17:04:00,
2013-03-23 13:09:00,36.6,25.6,30.13,NNW,339,1.0,5.0,64,0.00,,,0.00,VWS V14.01,2013-03-23 17:09:00,
2013-03-23 13:14:00,36.7,25.7,30.13,NW,317,0.0,5.0,64,0.00,,,0.00,VWS V14.01,2013-03-23 17:14:00,
2013-03-23 13:19:00,36.4,25.4,30.13,NNE,27,0.0,5.0,64,0.00,,,0.00,VWS V14.01,2013-03-23 17:19:00,
2013-03-23 13:23:00,36.5,25.5,30.12,NNW,342,1.0,5.0,64,0.00,,,0.00,VWS V14.01,2013-03-23 17:23:00,
2013-03-23 13:28:00,36.9,27.0,30.12,West,267,1.0,5.0,67,0.00,,,0.00,VWS V14.01,2013-03-23 17:28:00,
2013-03-23 13:33:00,37.5,26.1,30.12,NNW,333,2.0,5.0,63,0.00,,,0.00,VWS V14.01,2013-03-23 17:33:00,
2013-03-23 13:38:00,37.5,26.1,30.12,NNE,16,4.0,5.0,63,0.00,,,0.00,VWS V14.01,2013-03-23 17:38:00,
2013-03-23 13:43:00,36.9,25.1,30.12,NW,323,2.0,5.0,62,0.00,,,0.00,VWS V14.01,2013-03-23 17:43:00,
2013-03-23 13:48:00,36.9,25.9,30.12,NNW,339,1.0,6.0,64,0.00,,,0.00,VWS V14.01,2013-03-23 17:48:00,
2013-03-23 13:53:00,36.8,25.4,30.12,ENE,68,2.0,7.0,63,0.00,,,0.00,VWS V14.01,2013-03-23 17:53:00,
2013-03-23 13:58:00,36.3,24.9,30.12,NNE,32,3.0,7.0,63,0.00,,,0.00,VWS V14.01,2013-03-23 17:58:00,
2013-03-23 14:03:00,36.1,25.5,30.13,North,360,3.0,6.0,65,0.00,,,0.00,VWS V14.01,2013-03-23 18:03:00,
2013-03-23 14:08:00,36.2,25.6,30.12,NNW,340,2.0,6.0,65,0.00,,,0.00,VWS V14.01,2013-03-23 18:08:00,
2013-03-23 14:13:00,36.4,26.1,30.12,NW,315,1.0,5.0,66,0.00,,,0.00,VWS V14.01,2013-03-23 18:13:00,
2013-03-23 14:18:00,36.3,25.3,30.12,NNW,338,0.0,6.0,64,0.00,,,0.00,VWS V14.01,2013-03-23 18:18:00,
2013-03-23 14:23:00,36.3,25.7,30.12,NNW,345,3.0,6.0,65,0.00,,,0.00,VWS V14.01,2013-03-23 18:23:00,
2013-03-23 14:28:00,36.6,26.0,30.12,North,349,2.0,6.0,65,0.00,,,0.00,VWS V14.01,2013-03-23 18:28:00,
2013-03-23 14:33:00,36.6,26.3,30.11,NNW,342,1.0,6.0,66,0.00,,,0.00,VWS V14.01,2013-03-23 18:33:00,
2013-03-23 14:38:00,36.7,26.1,30.11,NW,304,2.0,6.0,65,0.00,,,0.00,VWS V14.01,2013-03-23 18:38:00,
2013-03-23 14:43:00,37.0,26.0,30.11,NW,309,1.0,6.0,64,0.00,,,0.00,VWS V14.01,2013-03-23 18:43:00,
2013-03-23 14:48:00,37.1,25.7,30.11,NE,53,2.0,5.0,63,0.00,,,0.00,VWS V14.01,2013-03-23 18:48:00,
2013-03-23 14:53:00,36.6,25.6,30.11,NNE,19,5.0,5.0,64,0.00,,,0.00,VWS V14.01,2013-03-23 18:53:00,
2013-03-23 14:58:00,36.4,25.8,30.11,NE,48,2.0,5.0,65,0.00,,,0.00,VWS V14.01,2013-03-23 18:58:00,
2013-03-23 15:03:00,36.5,25.5,30.11,NE,38,1.0,5.0,64,0.00,,,0.00,VWS V14.01,2013-03-23 19:03:00,
2013-03-23 15:08:00,36.8,26.1,30.10,NE,48,6.0,6.0,65,0.00,,,0.00,VWS V14.01,2013-03-23 19:08:00,
2013-03-23 15:13:00,37.3,26.3,30.10,North,355,3.0,6.0,64,0.00,,,0.00,VWS V14.01,2013-03-23 19:13:00,
2013-03-23 15:18:00,37.4,26.0,30.11,NE,49,4.0,6.0,63,0.00,,,0.00,VWS V14.01,2013-03-23 19:18:00,
2013-03-23 15:23:00,37.0,25.2,30.10,ENE,63,3.0,5.0,62,0.00,,,0.00,VWS V14.01,2013-03-23 19:23:00,
2013-03-23 15:28:00,37.3,25.9,30.10,NE,49,3.0,6.0,63,0.00,,,0.00,VWS V14.01,2013-03-23 19:28:00,
2013-03-23 15:33:00,38.0,26.1,30.10,North,5,2.0,6.0,62,0.00,,,0.00,VWS V14.01,2013-03-23 19:33:00,
2013-03-23 15:38:00,39.7,27.4,30.10,North,5,1.0,6.0,61,0.00,,,0.00,VWS V14.01,2013-03-23 19:38:00,
2013-03-23 15:43:00,39.0,25.9,30.09,East,88,1.0,6.0,59,0.00,,,0.00,VWS V14.01,2013-03-23 19:43:00,
2013-03-23 15:48:00,38.3,25.2,30.09,NE,36,2.0,5.0,59,0.00,,,0.00,VWS V14.01,2013-03-23 19:48:00,
2013-03-23 15:53:00,37.8,26.0,30.09,NNE,32,2.0,5.0,62,0.00,,,0.00,VWS V14.01,2013-03-23 19:53:00,
2013-03-23 15:58:00,39.8,27.1,30.09,North,10,1.0,6.0,60,0.00,,,0.00,VWS V14.01,2013-03-23 19:58:00,
2013-03-23 16:03:00,39.5,26.0,30.10,North,5,4.0,6.0,58,0.00,,,0.00,VWS V14.01,2013-03-23 20:03:00,
2013-03-23 16:08:00,38.4,25.7,30.10,NNE,30,1.0,6.0,60,0.00,,,0.00,VWS V14.01,2013-03-23 20:08:00,
2013-03-23 16:13:00,37.8,25.6,30.10,North,9,3.0,5.0,61,0.00,,,0.00,VWS V14.01,2013-03-23 20:13:00,
2013-03-23 16:18:00,37.4,24.8,30.09,NNE,26,0.0,5.0,60,0.00,,,0.00,VWS V14.01,2013-03-23 20:18:00,
2013-03-23 16:23:00,37.6,25.4,30.09,ENE,61,1.0,5.0,61,0.00,,,0.00,VWS V14.01,2013-03-23 20:23:00,
2013-03-23 16:28:00,37.9,25.3,30.10,WNW,288,2.0,5.0,60,0.00,,,0.00,VWS V14.01,2013-03-23 20:28:00,
2013-03-23 16:33:00,38.1,25.9,30.09,NW,319,3.0,6.0,61,0.00,,,0.00,VWS V14.01,2013-03-23 20:33:00,
2013-03-23 16:38:00,38.2,26.0,30.09,North,9,2.0,6.0,61,0.00,,,0.00,VWS V14.01,2013-03-23 20:38:00,
2013-03-23 16:43:00,37.7,25.5,30.09,NNE,32,2.0,5.0,61,0.00,,,0.00,VWS V14.01,2013-03-23 20:43:00,
2013-03-23 16:48:00,37.4,25.6,30.09,North,349,4.0,5.0,62,0.00,,,0.00,VWS V14.01,2013-03-23 20:48:00,
2013-03-23 16:53:00,37.6,25.4,30.09,North,360,3.0,5.0,61,0.00,,,0.00,VWS V14.01,2013-03-23 20:53:00,
2013-03-23 16:59:00,37.3,24.7,30.09,ENE,63,2.0,5.0,60,0.00,,,0.00,VWS V14.01,2013-03-23 20:59:00,
2013-03-23 17:04:00,38.0,25.8,30.09,North,350,3.0,4.0,61,0.00,,,0.00,VWS V14.01,2013-03-23 21:04:00,
2013-03-23 17:09:00,38.4,25.7,30.09,NNW,344,3.0,4.0,60,0.00,,,0.00,VWS V14.01,2013-03-23 21:09:00,
2013-03-23 17:14:00,38.4,25.3,30.09,NNW,336,0.0,4.0,59,0.00,,,0.00,VWS V14.01,2013-03-23 21:14:00,
2013-03-23 17:19:00,38.0,25.0,30.09,NNE,30,0.0,4.0,59,0.00,,,0.00,VWS V14.01,2013-03-23 21:19:00,
2013-03-23 17:24:00,38.3,26.0,30.10,WNW,288,0.0,5.0,61,0.00,,,0.00,VWS V14.01,2013-03-23 21:24:00,
2013-03-23 17:29:00,38.0,25.0,30.10,West,278,3.0,5.0,59,0.00,,,0.00,VWS V14.01,2013-03-23 21:29:00,
2013-03-23 17:34:00,37.7,25.5,30.10,WNW,287,1.0,4.0,61,0.00,,,0.00,VWS V14.01,2013-03-23 21:34:00,
2013-03-23 17:38:00,38.1,25.9,30.09,NE,49,1.0,4.0,61,0.00,,,0.00,VWS V14.01,2013-03-23 21:38:00,
2013-03-23 17:43:00,38.0,25.4,30.09,NE,48,1.0,3.0,60,0.00,,,0.00,VWS V14.01,2013-03-23 21:43:00,
2013-03-23 17:48:00,37.9,25.7,30.09,NE,44,0.0,3.0,61,0.00,,,0.00,VWS V14.01,2013-03-23 21:48:00,
2013-03-23 17:53:00,38.0,25.4,30.09,North,5,2.0,5.0,60,0.00,,,0.00,VWS V14.01,2013-03-23 21:53:00,
2013-03-23 17:58:00,38.0,25.8,30.08,NNE,32,2.0,5.0,61,0.00,,,0.00,VWS V14.01,2013-03-23 21:58:00,
2013-03-23 18:03:00,38.2,25.5,30.08,ENE,65,3.0,5.0,60,0.00,,,0.00,VWS V14.01,2013-03-23 22:03:00,
2013-03-23 18:08:00,37.9,25.3,30.07,NE,51,2.0,6.0,60,0.00,,,0.00,VWS V14.01,2013-03-23 22:08:00,
2013-03-23 18:13:00,37.4,25.2,30.07,North,351,1.0,6.0,61,0.00,,,0.00,VWS V14.01,2013-03-23 22:13:00,
2013-03-23 18:18:00,37.1,24.9,30.07,NE,54,1.0,6.0,61,0.00,,,0.00,VWS V14.01,2013-03-23 22:18:00,
2013-03-23 18:23:00,36.8,24.6,30.07,ENE,65,0.0,4.0,61,0.00,,,0.00,VWS V14.01,2013-03-23 22:23:00,
2013-03-23 18:28:00,36.9,25.1,30.07,NE,45,1.0,3.0,62,0.00,,,0.00,VWS V14.01,2013-03-23 22:28:00,
2013-03-23 18:33:00,37.0,25.6,30.06,NNW,345,0.0,4.0,63,0.00,,,0.00,VWS V14.01,2013-03-23 22:33:00,
2013-03-23 18:38:00,36.9,25.1,30.07,NNE,14,0.0,4.0,62,0.00,,,0.00,VWS V14.01,2013-03-23 22:38:00,
2013-03-23 18:43:00,36.6,24.8,30.07,North,360,1.0,4.0,62,0.00,,,0.00,VWS V14.01,2013-03-23 22:43:00,
2013-03-23 18:48:00,36.2,24.8,30.07,NE,34,1.0,4.0,63,0.00,,,0.00,VWS V14.01,2013-03-23 22:48:00,
2013-03-23 18:53:00,35.8,24.5,30.07,ENE,67,0.0,4.0,63,0.00,,,0.00,VWS V14.01,2013-03-23 22:53:00,
2013-03-23 18:58:00,35.4,24.5,30.07,NE,43,1.0,4.0,64,0.00,,,0.00,VWS V14.01,2013-03-23 22:58:00,
2013-03-23 19:03:00,35.3,24.7,30.07,NE,44,0.0,4.0,65,0.00,,,0.00,VWS V14.01,2013-03-23 23:03:00,
2013-03-23 19:08:00,35.4,24.5,30.07,NNE,17,2.0,4.0,64,0.00,,,0.00,VWS V14.01,2013-03-23 23:08:00,
2013-03-23 19:13:00,35.5,24.5,30.07,ENE,65,2.0,4.0,64,0.00,,,0.00,VWS V14.01,2013-03-23 23:13:00,
2013-03-23 19:18:00,35.5,24.5,30.07,ENE,65,0.0,4.0,64,0.00,,,0.00,VWS V14.01,2013-03-23 23:18:00,
2013-03-23 19:23:00,35.3,24.4,30.06,ENE,65,0.0,3.0,64,0.00,,,0.00,VWS V14.01,2013-03-23 23:23:00,
2013-03-23 19:28:00,35.1,24.5,30.06,NNW,335,0.0,2.0,65,0.00,,,0.00,VWS V14.01,2013-03-23 23:28:00,
2013-03-23 19:33:00,34.9,24.3,30.07,NNW,335,0.0,2.0,65,0.00,,,0.00,VWS V14.01,2013-03-23 23:33:00,
2013-03-23 19:38:00,34.7,24.1,30.07,NNW,335,0.0,2.0,65,0.00,,,0.00,VWS V14.01,2013-03-23 23:38:00,
2013-03-23 19:43:00,34.3,24.1,30.07,NE,56,0.0,4.0,66,0.00,,,0.00,VWS V14.01,2013-03-23 23:43:00,
2013-03-23 19:48:00,34.0,23.9,30.07,NE,51,1.0,4.0,66,0.00,,,0.00,VWS V14.01,2013-03-23 23:48:00,
2013-03-23 19:53:00,33.6,23.8,30.06,NE,53,0.0,4.0,67,0.00,,,0.00,VWS V14.01,2013-03-23 23:53:00,
2013-03-23 19:58:00,33.3,23.9,30.06,NE,53,0.0,4.0,68,0.00,,,0.00,VWS V14.01,2013-03-23 23:58:00,
2013-03-23 20:03:00,32.8,23.8,30.06,NE,53,1.0,2.0,69,0.00,,,0.00,VWS V14.01,2013-03-24 00:03:00,
2013-03-23 20:08:00,32.3,23.6,30.06,NE,53,0.0,2.0,70,0.00,,,0.00,VWS V14.01,2013-03-24 00:08:00,
2013-03-23 20:13:00,31.9,23.2,30.06,NE,53,1.0,2.0,70,0.00,,,0.00,VWS V14.01,2013-03-24 00:13:00,
2013-03-23 20:18:00,31.6,23.3,30.06,NE,53,0.0,1.0,71,0.00,,,0.00,VWS V14.01,2013-03-24 00:18:00,
2013-03-23 20:23:00,31.2,22.9,30.07,NE,53,0.0,1.0,71,0.00,,,0.00,VWS V14.01,2013-03-24 00:23:00,
2013-03-23 20:28:00,30.9,23.0,30.07,NE,53,0.0,0.0,72,0.00,,,0.00,VWS V14.01,2013-03-24 00:28:00,
2013-03-23 20:33:00,30.6,23.0,30.07,NE,53,0.0,0.0,73,0.00,,,0.00,VWS V14.01,2013-03-24 00:33:00,
2013-03-23 20:38:00,30.2,22.6,30.07,NE,53,0.0,0.0,73,0.00,,,0.00,VWS V14.01,2013-03-24 00:38:00,
2013-03-23 20:43:00,29.9,22.6,30.07,NE,53,0.0,0.0,74,0.00,,,0.00,VWS V14.01,2013-03-24 00:43:00,
2013-03-23 20:48:00,29.6,22.4,30.07,NE,53,0.0,0.0,74,0.00,,,0.00,VWS V14.01,2013-03-24 00:48:00,
2013-03-23 20:53:00,29.4,22.5,30.07,NE,53,0.0,0.0,75,0.00,,,0.00,VWS V14.01,2013-03-24 00:53:00,
2013-03-23 20:58:00,29.2,22.3,30.07,NE,53,0.0,0.0,75,0.00,,,0.00,VWS V14.01,2013-03-24 00:58:00,
2013-03-23 21:03:00,29.0,22.4,30.07,NE,53,0.0,0.0,76,0.00,,,0.00,VWS V14.01,2013-03-24 01:03:00,
2013-03-23 21:08:00,28.9,22.6,30.08,NE,53,0.0,0.0,77,0.00,,,0.00,VWS V14.01,2013-03-24 01:08:00,
2013-03-23 21:13:00,28.7,22.4,30.07,NE,53,0.0,0.0,77,0.00,,,0.00,VWS V14.01,2013-03-24 01:13:00,
2013-03-23 21:18:00,28.6,22.3,30.07,NE,53,0.0,0.0,77,0.00,,,0.00,VWS V14.01,2013-03-24 01:18:00,
2013-03-23 21:23:00,28.4,22.4,30.07,NE,53,0.0,0.0,78,0.00,,,0.00,VWS V14.01,2013-03-24 01:23:00,
2013-03-23 21:28:00,28.2,22.2,30.07,NE,53,0.0,0.0,78,0.00,,,0.00,VWS V14.01,2013-03-24 01:28:00,
2013-03-23 21:33:00,28.0,22.0,30.08,NE,53,0.0,0.0,78,0.00,,,0.00,VWS V14.01,2013-03-24 01:33:00,
2013-03-23 21:38:00,27.8,21.9,30.08,NE,53,0.0,0.0,78,0.00,,,0.00,VWS V14.01,2013-03-24 01:38:00,
2013-03-23 21:43:00,27.6,22.0,30.08,NE,53,0.0,0.0,79,0.00,,,0.00,VWS V14.01,2013-03-24 01:43:00,
2013-03-23 21:48:00,27.5,22.5,30.08,NE,53,0.0,0.0,81,0.00,,,0.00,VWS V14.01,2013-03-24 01:48:00,
2013-03-23 21:53:00,27.4,22.6,30.07,NE,53,0.0,0.0,82,0.00,,,0.00,VWS V14.01,2013-03-24 01:53:00,
2013-03-23 21:58:00,27.2,22.4,30.07,NE,53,0.0,0.0,82,0.00,,,0.00,VWS V14.01,2013-03-24 01:58:00,
2013-03-23 22:03:00,27.1,22.6,30.07,ENE,78,0.0,3.0,83,0.00,,,0.00,VWS V14.01,2013-03-24 02:03:00,
2013-03-23 22:08:00,27.2,22.7,30.07,ENE,78,0.0,3.0,83,0.00,,,0.00,VWS V14.01,2013-03-24 02:08:00,
2013-03-23 22:13:00,27.3,22.8,30.06,NE,51,0.0,3.0,83,0.00,,,0.00,VWS V14.01,2013-03-24 02:13:00,
2013-03-23 22:18:00,27.6,23.1,30.06,ENE,60,0.0,2.0,83,0.00,,,0.00,VWS V14.01,2013-03-24 02:18:00,
2013-03-23 22:23:00,27.8,23.0,30.06,ENE,60,0.0,2.0,82,0.00,,,0.00,VWS V14.01,2013-03-24 02:23:00,
2013-03-23 22:28:00,27.9,23.1,30.05,NNE,22,0.0,3.0,82,0.00,,,0.00,VWS V14.01,2013-03-24 02:28:00,
2013-03-23 22:33:00,27.9,22.8,30.05,NNE,22,0.0,3.0,81,0.00,,,0.00,VWS V14.01,2013-03-24 02:33:00,
2013-03-23 22:38:00,27.8,22.7,30.05,NNE,22,0.0,3.0,81,0.00,,,0.00,VWS V14.01,2013-03-24 02:38:00,
2013-03-23 22:43:00,27.9,22.8,30.05,NNE,22,0.0,2.0,81,0.00,,,0.00,VWS V14.01,2013-03-24 02:43:00,
2013-03-23 22:48:00,27.9,22.8,30.05,NE,47,0.0,3.0,81,0.00,,,0.00,VWS V14.01,2013-03-24 02:48:00,
2013-03-23 22:53:00,27.8,22.7,30.05,NNE,24,3.0,3.0,81,0.00,,,0.00,VWS V14.01,2013-03-24 02:53:00,
2013-03-23 22:58:00,27.9,22.8,30.05,NNE,29,0.0,3.0,81,0.00,,,0.00,VWS V14.01,2013-03-24 02:58:00,
2013-03-23 23:03:00,27.9,22.8,30.05,NNE,16,0.0,3.0,81,0.00,,,0.00,VWS V14.01,2013-03-24 03:03:00,
2013-03-23 23:08:00,27.8,22.7,30.05,NNE,16,0.0,3.0,81,0.00,,,0.00,VWS V14.01,2013-03-24 03:08:00,
2013-03-23 23:13:00,27.6,22.5,30.04,NNE,16,0.0,1.0,81,0.00,,,0.00,VWS V14.01,2013-03-24 03:13:00,
2013-03-23 23:18:00,27.4,22.4,30.04,NNE,18,0.0,1.0,81,0.00,,,0.00,VWS V14.01,2013-03-24 03:18:00,
2013-03-23 23:23:00,27.2,22.4,30.04,NNE,28,1.0,2.0,82,0.00,,,0.00,VWS V14.01,2013-03-24 03:23:00,
2013-03-23 23:28:00,27.1,22.4,30.04,NNE,28,0.0,2.0,82,0.00,,,0.00,VWS V14.01,2013-03-24 03:28:00,
2013-03-23 23:33:00,27.0,22.5,30.04,NNE,30,0.0,2.0,83,0.00,,,0.00,VWS V14.01,2013-03-24 03:33:00,
2013-03-23 23:38:00,27.0,22.5,30.04,NNE,30,0.0,2.0,83,0.00,,,0.00,VWS V14.01,2013-03-24 03:38:00,
2013-03-23 23:43:00,27.0,22.5,30.04,NNE,30,0.0,2.0,83,0.00,,,0.00,VWS V14.01,2013-03-24 03:43:00,
2013-03-23 23:48:00,27.0,22.8,30.04,ENE,57,1.0,4.0,84,0.00,,,0.00,VWS V14.01,2013-03-24 03:48:00,
2013-03-23 23:53:00,27.2,22.7,30.04,ENE,57,0.0,4.0,83,0.00,,,0.00,VWS V14.01,2013-03-24 03:53:00,
2013-03-23 23:58:00,27.1,22.6,30.03,NNE,15,0.0,4.0,83,0.00,,,0.00,VWS V14.01,2013-03-24 03:58:00,